EW5500 Weather Reports


time (UTC)temp
F
wind
direction
speed
knots
gust
knots
rain 1hr
in
rain 24hr
in
rain mn
in
humidity
%
barometer
mb
20260507141556 53 265 2.6 6.1 0.00 0.00 0.00 55 1008.1
20260507140052 51 182 1.7 5.2 0.00 0.00 0.00 61 1008.1
20260507134550 49 231 0.9 4.3 0.00 0.00 0.00 65 1008.0
20260507133101 46 172 0.0 2.6 0.00 0.00 0.00 70 1008.1
20260507131552 45 248 0.0 0.9 0.00 0.00 0.00 70 1008.1
20260507130104 46 242 0.9 3.5 0.00 0.00 0.00 67 1008.1
20260507124547 45 245 1.7 2.6 0.00 0.00 0.00 70 1008.0
20260507123045 45 231 0.0 1.7 0.00 0.00 0.00 70 1008.1
20260507121551 45 232 0.0 1.7 0.00 0.00 0.00 69 1008.0
20260507120053 45 248 0.9 2.6 0.00 0.00 0.00 69 1008.2
20260507114614 46 205 0.0 5.2 0.00 0.00 0.00 65 1007.9
20260507113038 47 237 1.7 3.5 0.00 0.00 0.00 60 1008.0
20260507111537 47 261 0.0 2.6 0.00 0.00 0.00 64 1008.0
20260507110036 47 243 0.0 1.7 0.00 0.00 0.00 61 1007.8
20260507104535 46 151 0.9 2.6 0.00 0.00 0.00 63 1007.4
20260507103031 47 181 0.0 0.9 0.00 0.00 0.00 61 1007.8
20260507101530 49 255 0.0 1.7 0.00 0.00 0.00 47 1008.2
20260507100033 48 17 0.0 0.9 0.00 0.00 0.00 46 1008.0
20260507094528 48 17 0.0 1.7 0.00 0.00 0.00 48 1007.8
20260507093026 47 17 0.0 1.7 0.00 0.00 0.00 49 1007.8
20260507091529 48 17 0.0 1.7 0.00 0.00 0.00 47 1007.5
20260507090023 48 239 0.9 1.7 0.00 0.00 0.00 44 1007.6
20260507084519 48 248 0.0 2.6 0.00 0.00 0.00 46 1007.5
20260507083016 49 252 0.0 0.9 0.00 0.00 0.00 45 1007.8
20260507081513 49 344 0.0 0.0 0.00 0.00 0.00 43 1007.2
20260507080010 49 344 0.0 1.7 0.00 0.00 0.00 42 1007.1
20260507074507 49 248 0.9 1.7 0.00 0.00 0.00 41 1006.9
20260507073003 50 248 0.9 2.6 0.00 0.00 0.00 39 1006.9
20260507071502 50 84 0.0 0.9 0.00 0.00 0.00 37 1006.5
20260507070002 50 84 0.0 0.9 0.00 0.00 0.00 37 1006.4
20260507064603 50 84 0.0 1.7 0.00 0.00 0.00 36 1006.2
20260507063105 50 89 1.7 4.3 0.00 0.00 0.00 35 1006.6
20260507061555 51 75 0.0 1.7 0.00 0.00 0.00 33 1006.7
20260507060056 51 75 0.9 2.6 0.00 0.00 0.00 33 1006.3
20260507054552 51 75 1.7 7.0 0.00 0.00 0.00 34 1006.5
20260507053050 51 71 4.3 7.8 0.00 0.00 0.00 33 1006.6
20260507051550 52 9 2.6 8.7 0.00 0.00 0.00 35 1006.7
20260507050049 52 105 3.5 7.8 0.00 0.00 0.00 36 1006.6
20260507044549 52 98 1.7 7.0 0.00 0.00 0.00 38 1006.9
20260507043048 53 60 1.7 6.1 0.00 0.00 0.00 31 1007.0
20260507041551 53 84 2.6 7.0 0.00 0.00 0.00 31 1007.0
20260507040053 54 94 1.7 4.3 0.00 0.00 0.00 31 1006.8
20260507034551 54 91 1.7 2.6 0.00 0.00 0.00 30 1006.9
20260507033051 55 98 3.5 5.2 0.00 0.00 0.00 29 1006.8
20260507031545 55 116 3.5 13.0 0.00 0.00 0.00 29 1006.3
20260507030045 56 79 6.1 13.0 0.00 0.00 0.00 28 1006.0
20260507024546 57 95 7.8 13.9 0.00 0.00 0.00 26 1005.2
20260507023048 58 82 7.0 12.2 0.00 0.00 0.00 25 1005.3
20260507021545 59 79 6.1 12.2 0.00 0.00 0.00 24 1005.6
20260507020104 60 70 6.1 14.8 0.00 0.00 0.00 24 1005.8
20260507014544 61 50 7.0 12.2 0.00 0.00 0.00 24 1005.5
20260507013050 62 75 6.1 13.0 0.00 0.00 0.00 23 1005.3
20260507011540 63 74 7.0 11.3 0.00 0.00 0.00 23 1005.2
20260507010039 65 25 6.1 10.4 0.00 0.00 0.00 22 1005.4
20260507004547 65 60 7.0 12.2 0.00 0.00 0.00 23 1005.5
20260507003042 66 93 7.0 12.2 0.00 0.00 0.00 22 1005.6
20260507001542 65 71 4.3 7.8 0.00 0.00 0.00 23 1005.6
20260507000035 65 58 3.5 7.0 0.00 0.00 0.00 23 1005.7
20260506234537 67 66 3.5 8.7 0.00 0.00 0.00 22 1005.7
20260506233031 67 61 2.6 7.0 0.00 0.00 0.00 22 1005.7
20260506231529 68 94 2.6 7.0 0.00 0.00 0.00 22 1005.9
20260506230027 69 330 0.0 6.1 0.00 0.00 0.00 20 1006.1
20260506224525 69 79 0.9 3.5 0.00 0.00 0.00 20 1006.4
20260506223021 68 140 1.7 6.1 0.00 0.00 0.00 21 1006.7
20260506221518 67 125 0.9 3.5 0.00 0.00 0.00 22 1006.8
20260506220016 68 243 1.7 4.3 0.00 0.00 0.00 20 1007.1
20260506214522 66 122 2.6 5.2 0.00 0.00 0.00 23 1007.5
20260506213009 66 122 2.6 7.8 0.00 0.00 0.00 21 1007.8
20260506211506 66 246 4.3 9.6 0.00 0.00 0.00 21 1008.1
20260506210004 66 245 1.7 7.0 0.00 0.00 0.00 22 1008.5
20260506204502 65 155 1.7 8.7 0.00 0.00 0.00 22 1008.7
20260506203100 65 143 2.6 6.1 0.00 0.00 0.00 22 1008.9
20260506201557 64 75 0.9 4.3 0.00 0.00 0.00 21 1009.1
20260506200053 63 149 1.7 6.1 0.00 0.00 0.00 24 1009.4
20260506194550 63 137 2.6 7.8 0.00 0.00 0.00 24 1009.8
20260506193046 62 144 1.7 7.0 0.00 0.00 0.00 25 1010.1
20260506191544 61 230 2.6 7.8 0.00 0.00 0.00 24 1010.4
20260506190040 61 125 2.6 7.0 0.00 0.00 0.00 25 1010.8
20260506184547 60 184 2.6 10.4 0.00 0.00 0.00 26 1011.1
20260506183049 59 140 2.6 10.4 0.00 0.00 0.00 26 1011.4
20260506181546 59 232 1.7 5.2 0.00 0.00 0.00 26 1011.5
20260506180032 57 257 1.7 8.7 0.00 0.00 0.00 26 1011.9
20260506174526 57 118 1.7 6.1 0.00 0.00 0.00 26 1012.2
20260506173021 57 228 2.6 4.3 0.00 0.00 0.00 27 1012.5
20260506171518 55 259 3.5 7.8 0.00 0.00 0.00 27 1012.9
20260506170016 54 176 2.6 7.0 0.00 0.00 0.00 28 1013.0
20260506164512 54 265 2.6 9.6 0.00 0.00 0.00 30 1013.2
20260506163008 54 265 1.7 9.6 0.00 0.00 0.00 31 1013.5
20260506161505 53 211 3.5 8.7 0.00 0.00 0.00 33 1013.7
20260506160004 53 324 2.6 7.8 0.00 0.00 0.00 33 1014.0
20260506154604 52 115 2.6 13.0 0.00 0.00 0.00 33 1014.2
20260506154502 52 252 3.5 13.0 0.00 0.00 0.00 34 1014.3
20260506153113 51 98 1.7 7.0 0.00 0.00 0.00 34 1014.4
20260506151552 50 149 2.6 7.0 0.00 0.00 0.00 35 1014.7
20260506150058 49 191 1.7 5.2 0.00 0.00 0.00 36 1015.0
20260506144554 47 159 0.0 4.3 0.00 0.00 0.00 44 1015.2
20260506143039 43 149 0.9 5.2 0.00 0.00 0.00 48 1015.5